Location: Home
(42.5358°N, 72.7383°W)
Time: 13:16:28
(UTC-05:00)

Explorer 7 - Pass Details

Date: 01 December 2021
Orbit: 483 x 674 km, 50.3° (Epoch: 21 January)

Event Time Altitude Azimuth Distance (km) Brightness Sun altitude
Rises 04:49:02 0° 189° (S) 2,845 10.5 -23.8°
Reaches altitude 10° 04:52:16 10° 165° (SSE) 1,901 9.8 -23.2°
Maximum altitude 04:54:37 14° 132° (SE) 1,602 9.9 -22.7°
Drops below altitude 10° 04:56:55 10° 99° (E) 1,841 10.6 -22.3°
Sets 04:59:57 0° 74° (ENE) 2,694 11.4 -21.8°
